Location: Curicchi
(45.0167°N, 12.0500°E)
Time: 10:37:44
(UTC+00:00)

CZ-4B R/B - Pass Details

Date: 07 June 2020
Orbit: 703 x 802 km, 98.8° (Epoch: 05 July)

Event Time Altitude Azimuth Distance (km) Brightness Sun altitude
Rises 00:53:54 0° 17° (NNE) 3,302 8.4 -18.2°
Reaches altitude 10° 00:56:16 10° 21° (NNE) 2,376 7.3 -18.1°
Maximum altitude 01:01:30 62° 102° (ESE) 898 3.9 -17.6°
Enters shadow 01:04:35 25° 176° (S) 1,585 4.6 -17.4°
